Location: Alpha Ridge Park
(39.3209°N, 76.9128°W)
Time: 09:07:57
(UTC-04:00)

AO-92 - Pass Details

Date: 30 June 2022
Orbit: 469 x 481 km, 97.4° (Epoch: 13 August)

Event Time Altitude Azimuth Distance (km) Brightness Sun altitude
Exits shadow 22:28:26 20° 82° (E) 1,143 ? -16.9°
Maximum altitude 22:28:55 21° 70° (ENE) 1,123 ? -16.9°
Drops below altitude 10° 22:31:39 10° 20° (NNE) 1,661 ? -17.3°
Sets 22:34:04 0° 4° (N) 2,548 ? -17.5°
